[[{"header":{"parameterUnit":"m.s-1","parameterCategory":2,"la1":30.2991,"la2":30.254,"lo1":-89.0895,"lo2":-89.0444,"dy":0.0017,"dx":0.0017,"nx":28,"ny":28,"refTime":"2023-08-19T21:00:00:Z","depth":"0","parameterNumber":2,"parameterNumberName":"U-component_of_CURRENTS"},"data":[0,0,0,0,0,0,0,0,0,0,0,0,0,0,0,0,0,0,0,0,0,0,0,0,0,0,0,0,0,0,0,0,0,0,0,0,0,0,0,0,0,0,0,0,0,0,0,0,0,0,0,0,0,0,0,0,0,0,-0.2784,-0.2785,0,-0.2861,-0.2862,-0.2863,-0.2876,-0.2875,-0.2875,-0.2874,-0.2786,-0.2784,-0.2782,0,0,0,0,0,0,0,0,0,0,0,0,0,-0.2678,-0.268,-0.2784,-0.2785,-0.2786,-0.2861,-0.2862,-0.2863,-0.2876,-0.2875,-0.2875,-0.2874,-0.2787,-0.2784,-0.2782,0,0,0,0,0,0,0,0,0,0,0,0,0,-0.2735,-0.268,-0.2783,-0.2803,-0.2806,-0.2861,-0.2862,-0.2863,-0.2876,-0.2875,-0.2874,-0.2874,-0.2787,-0.2785,-0.2782,-0.2779,0,0,-0.2773,-0.2772,0,0,0,0,0,0,0,0,-0.2731,-0.2738,-0.2799,-0.2802,-0.2805,-0.286,-0.2793,-0.2827,-0.2876,-0.2847,-0.2874,-0.2873,-0.2797,-0.2793,-0.2809,-0.2775,-0.2771,-0.2773,-0.2771,-0.277,-0.2769,0,0,0,0,0,0,0,-0.2727,-0.2735,-0.2812,-0.28,-0.2804,-0.2819,-0.2826,-0.28,-0.282,-0.285,-0.2851,-0.2863,-0.2797,-0.2812,-0.2807,-0.2769,-0.2773,-0.277,-0.2769,-0.2767,-0.2712,-0.2712,0,0,0,0,0,0,-0.2721,-0.2732,-0.281,-0.2815,-0.2768,-0.2821,-0.2829,-0.2841,-0.2824,-0.2823,-0.2864,-0.2864,-0.2817,-0.281,-0.2803,-0.2799,-0.277,-0.2767,-0.2766,-0.2711,-0.2712,-0.2712,0,0,0,0,0,0,-0.2719,-0.2728,-0.2807,-0.2776,-0.2788,-0.2824,-0.2838,-0.2843,-0.286,-0.2838,-0.2832,-0.2875,-0.2816,-0.2807,-0.2792,-0.2795,-0.2766,-0.2763,-0.2711,-0.2712,-0.2712,-0.2788,0,0,0,0,0,0,-0.2715,-0.2726,-0.2734,-0.2776,-0.2789,-0.2845,-0.2839,-0.2845,-0.2869,-0.287,-0.2845,-0.2837,-0.2815,-0.2797,-0.279,-0.279,-0.2761,-0.2711,-0.2711,-0.2712,-0.2786,-0.2791,-0.2796,0,0,0,0,0,-0.2711,-0.2743,-0.2733,-0.2743,-0.2798,-0.2846,-0.2855,-0.2876,-0.287,-0.2886,-0.2871,-0.2838,-0.2794,-0.2796,-0.2787,-0.2787,-0.2711,-0.2711,-0.2712,-0.2783,-0.279,-0.2796,0,0,0,0,0,0,-0.2705,-0.2748,-0.2739,-0.278,-0.2806,-0.2849,-0.2872,-0.288,-0.2885,-0.2879,-0.2848,-0.284,-0.2828,-0.2795,-0.2798,-0.277,-0.2743,-0.2742,-0.28,-0.2806,-0.2812,-0.282,-0.2759,0,0,0,0,0,-0.2703,-0.2733,-0.2766,-0.2794,-0.2808,-0.2834,-0.2855,-0.287,-0.2883,-0.2887,-0.287,-0.2844,-0.2825,-0.2807,-0.2788,-0.2773,-0.2731,-0.2763,-0.2768,-0.2773,-0.2773,-0.2719,-0.272,-0.2714,-0.2714,-0.2714,0,0,-0.2709,-0.2734,-0.2751,-0.2793,-0.2813,-0.2855,-0.2845,-0.2885,-0.2912,-0.2871,-0.2892,-0.2866,-0.2827,-0.282,-0.2809,-0.2791,-0.2754,-0.2774,-0.2778,-0.2775,-0.272,-0.272,-0.2721,-0.2714,-0.2714,-0.2714,0,0,-0.2738,-0.2752,-0.2784,-0.2818,-0.2855,-0.2873,-0.2883,-0.2922,-0.2927,-0.2946,-0.292,-0.2896,-0.2875,-0.2848,-0.283,-0.2847,-0.279,-0.2836,-0.2863,-0.2812,-0.2812,-0.2811,-0.2765,-0.276,-0.2831,-0.2832,-0.2832,0,-0.2733,-0.2781,-0.28,-0.2847,-0.2876,-0.2882,-0.2923,-0.2942,-0.2969,-0.2959,-0.2958,-0.2917,-0.2889,-0.286,-0.2877,-0.2858,-0.2823,-0.2846,-0.2819,-0.2818,-0.2816,-0.2769,-0.2762,-0.2835,-0.2835,-0.2835,-0.2834,0,-0.2783,-0.2832,-0.2859,-0.291,-0.2943,-0.2984,-0.301,-0.3024,-0.3022,-0.3024,-0.3,-0.297,-0.2935,-0.2926,-0.2914,-0.2884,-0.2862,-0.284,-0.2806,-0.2821,-0.2771,-0.2762,-0.2841,-0.2839,-0.2838,-0.2837,0,0,-0.2735,-0.2864,-0.2869,-0.2913,-0.2979,-0.3011,-0.3046,-0.3061,-0.3064,-0.3066,-0.3053,-0.303,-0.2995,-0.2972,-0.2937,-0.2902,-0.2872,-0.2876,-0.2872,-0.2838,-0.2763,-0.2693,-0.2677,-0.2848,-0.2846,-0.2846,-0.2735,0,-0.2752,-0.2853,-0.2906,-0.2993,-0.3049,-0.3076,-0.3103,-0.3118,-0.3113,-0.3104,-0.3053,-0.3028,-0.3016,-0.299,-0.296,-0.2891,-0.2852,-0.2904,-0.2747,-0.2742,-0.2684,-0.2666,-0.2615,-0.2508,-0.2727,-0.2725,-0.2724,0,-0.2768,-0.284,-0.2925,-0.3039,-0.3057,-0.3097,-0.3119,-0.315,-0.3135,-0.3121,-0.3087,-0.3052,-0.3,-0.2986,-0.2878,-0.2913,-0.2849,-0.2798,-0.2791,-0.2692,-0.2657,-0.2525,-0.2483,-0.2479,-0.2711,-0.2712,-0.2713,0,-0.2717,-0.2853,-0.2913,-0.2957,-0.3072,-0.3088,-0.3125,-0.3137,-0.3134,-0.3117,-0.3096,-0.3043,-0.2991,-0.2921,-0.2829,-0.285,-0.2703,-0.2706,-0.258,-0.2574,-0.248,-0.2468,-0.2417,-0.2622,-0.2622,-0.2622,-0.2623,0,-0.2721,-0.2776,-0.2896,-0.2937,-0.2983,-0.3071,-0.3083,-0.3108,-0.3112,-0.3095,-0.309,-0.306,-0.2972,-0.2887,-0.2819,-0.2665,-0.2683,-0.2574,-0.2534,-0.2506,-0.2498,-0.2447,-0.2477,-0.2618,-0.2619,-0.262,-0.2621,0,-0.2662,-0.2749,-0.2826,-0.2937,-0.2968,-0.2992,-0.3057,-0.3062,-0.3081,-0.3058,-0.3046,-0.3034,-0.2935,-0.2833,-0.2699,-0.2622,-0.2455,-0.2439,-0.2415,-0.2374,-0.2259,-0.2295,-0.2156,-0.2091,-0.2283,-0.2281,-0.2279,0,-0.2644,-0.2678,-0.2788,-0.2821,-0.2869,-0.2923,-0.2949,-0.3013,-0.3023,-0.3044,-0.3027,-0.2952,-0.2883,-0.2671,-0.2513,-0.2336,-0.2349,-0.2198,-0.2224,-0.2233,-0.2244,-0.2253,-0.2211,-0.2135,-0.2132,-0.2129,-0.2127,0,-0.2578,-0.2599,-0.2646,-0.272,-0.2765,-0.284,-0.2898,-0.2908,-0.2972,-0.2976,-0.299,-0.2944,-0.2732,-0.2534,-0.229,-0.2194,-0.2168,-0.2139,-0.2147,-0.2119,-0.2124,-0.2049,-0.2243,-0.2105,-0.2107,-0.2109,-0.211,-0.2111,-0.2478,-0.2481,-0.253,-0.259,-0.2655,-0.2751,-0.277,-0.2844,-0.2879,-0.2843,-0.2888,-0.2753,-0.2552,-0.2215,-0.2116,-0.1936,-0.1967,-0.1893,-0.1934,-0.194,-0.1884,-0.203,-0.1849,-0.185,-0.185,-0.1851,-0.1851,0,-0.2348,-0.2369,-0.2411,-0.2474,-0.2512,-0.261,-0.2712,-0.2717,-0.2737,-0.267,-0.2626,-0.2433,-0.2222,-0.2059,-0.186,-0.1765,-0.172,-0.1738,-0.1767,-0.1729,-0.1847,-0.185,-0.1661,-0.1661,-0.1661,-0.1661,-0.1661,-0.1661,-0.2278,-0.2253,-0.2285,-0.2307,-0.2366,-0.2354,-0.241,-0.2493,-0.2455,-0.2334,-0.2182,-0.2068,-0.1962,-0.1995,-0.1845,-0.1751,-0.1706,-0.1648,-0.1639,-0.1787,-0.1807,-0.1825,-0.1833,-0.1645,-0.1645,-0.1471,-0.1471,-0.147]},{"header":{"parameterUnit":"m.s-1","parameterCategory":2,"la1":30.2991,"la2":30.254,"lo1":-89.0895,"lo2":-89.0444,"dy":0.0017,"dx":0.0017,"nx":28,"ny":28,"refTime":"2023-08-19T21:00:00:Z","depth":"0","parameterNumber":3,"parameterNumberName":"V-component_of_CURRENTS"},"data":[0,0,0,0,0,0,0,0,0,0,0,0,0,0,0,0,0,0,0,0,0,0,0,0,0,0,0,0,0,0,0,0,0,0,0,0,0,0,0,0,0,0,0,0,0,0,0,0,0,0,0,0,0,0,0,0,0,0,-0.0109,-0.0108,0,0.0042,0.0045,0.0047,0.0129,0.0128,0.0128,0.0127,0.0255,0.0259,0.0263,0,0,0,0,0,0,0,0,0,0,0,0,0,-0.01,-0.0101,-0.0109,-0.0108,-0.0107,0.0042,0.0045,0.0048,0.0129,0.0128,0.0127,0.0127,0.0254,0.0259,0.0263,0,0,0,0,0,0,0,0,0,0,0,0,0,-0.0034,-0.0101,-0.0109,-0.0055,-0.0049,0.0041,0.0045,0.0048,0.0129,0.0128,0.0127,0.0126,0.0252,0.0258,0.0264,0.0319,0,0,0.0282,0.0285,0,0,0,0,0,0,0,0,-0.0038,-0.0034,-0.0064,-0.0058,-0.0052,0.0058,0.0095,0.0135,0.0129,0.0071,0.0127,0.0126,0.0182,0.0194,0.0237,0.0325,0.0331,0.0283,0.0286,0.0289,0.0291,0,0,0,0,0,0,0,-0.0043,-0.0038,-0.004,-0.0063,-0.0056,0.0039,0.0047,0.0105,0.0136,0.0076,0.008,0.0083,0.0186,0.0231,0.024,0.0332,0.0283,0.0288,0.0292,0.0294,0.0526,0.0528,0,0,0,0,0,0,-0.0091,-0.0044,-0.0045,-0.0037,-0.0057,0.0038,0.0047,0.0031,0.0136,0.0149,0.0084,0.0086,0.0221,0.0233,0.0245,0.0346,0.0289,0.0294,0.0298,0.0523,0.0527,0.0529,0,0,0,0,0,0,-0.0091,-0.0093,-0.0051,-0.0042,-0.0031,0.0036,0.002,0.0034,0.0074,0.0141,0.0155,0.0106,0.0221,0.0237,0.0321,0.0349,0.0297,0.0303,0.052,0.0524,0.0528,0.0527,0,0,0,0,0,0,-0.0092,-0.0094,-0.0109,-0.0047,-0.0034,0.0003,0.002,0.0037,0.0073,0.0078,0.0165,0.0176,0.0222,0.0312,0.0327,0.0357,0.0307,0.0517,0.0522,0.0527,0.0524,0.0531,0.0536,0,0,0,0,0,-0.0092,-0.0111,-0.0111,-0.0111,-0.0063,0.0003,0.0021,0.0074,0.0075,0.0105,0.0173,0.0173,0.0353,0.032,0.0336,0.0368,0.0515,0.0521,0.0526,0.0521,0.0529,0.0536,0,0,0,0,0,0,-0.0107,-0.0103,-0.0102,-0.0119,-0.0065,0.0014,0.0037,0.0069,0.0149,0.0148,0.0211,0.023,0.031,0.0348,0.0309,0.0453,0.0433,0.0442,0.0423,0.0431,0.0437,0.0425,0.0312,0,0,0,0,0,-0.0125,-0.0144,-0.0105,-0.0114,-0.0097,-0.0032,0.0001,0.0036,0.0104,0.0138,0.0204,0.0277,0.0351,0.0394,0.0461,0.0543,0.0587,0.0576,0.0582,0.0587,0.0592,0.0683,0.0697,0.0549,0.0548,0.0548,0,0,-0.0134,-0.0136,-0.0145,-0.0119,-0.0079,-0.0028,-0.0012,0.0032,0.0087,0.0138,0.0236,0.0293,0.0376,0.0472,0.0511,0.0506,0.0659,0.0594,0.0597,0.06,0.0691,0.0705,0.0717,0.0552,0.0552,0.0551,0,0,-0.015,-0.0164,-0.0176,-0.0131,-0.0088,-0.0034,-0.0029,0.0053,0.0098,0.0194,0.0246,0.0328,0.0441,0.0521,0.057,0.0652,0.068,0.0666,0.0697,0.0786,0.0798,0.0809,0.09,0.0919,0.0678,0.0678,0.0678,0,-0.0163,-0.0173,-0.0158,-0.0136,-0.0093,-0.0043,-0.0001,0.0063,0.017,0.022,0.0219,0.0416,0.0471,0.0604,0.0635,0.0664,0.0717,0.0655,0.0791,0.0803,0.0814,0.0904,0.0925,0.0679,0.0679,0.0679,0.0679,0,-0.0177,-0.0162,-0.0158,-0.0119,-0.006,-0.0021,0.0062,0.0125,0.0176,0.0249,0.0373,0.0469,0.0585,0.0618,0.0652,0.0772,0.0785,0.0775,0.076,0.0828,0.092,0.0942,0.068,0.068,0.068,0.0679,0,0,-0.026,-0.0188,-0.0185,-0.0143,-0.0049,-0.0001,0.0091,0.0198,0.0259,0.0362,0.0462,0.0594,0.0633,0.0693,0.075,0.0831,0.0957,0.0836,0.084,0.0907,0.1162,0.1114,0.1134,0.0964,0.0968,0.0971,0.1198,0,-0.0272,-0.0239,-0.0182,-0.0096,-0.0054,0.0044,0.0134,0.0241,0.0329,0.044,0.0542,0.065,0.0666,0.0719,0.0807,0.0918,0.1013,0.0897,0.1104,0.1111,0.1043,0.1157,0.1015,0.12,0.122,0.1224,0.1226,0,-0.0304,-0.0268,-0.0215,-0.0074,-0.0047,0.0019,0.0167,0.0258,0.0418,0.0481,0.0601,0.0682,0.0837,0.0816,0.1052,0.0976,0.1072,0.1149,0.1159,0.1127,0.1103,0.1136,0.1239,0.1346,0.126,0.1257,0.1255,0,-0.0378,-0.0276,-0.0238,-0.0195,-0.0043,0.0012,0.0106,0.0263,0.0349,0.0505,0.0588,0.0754,0.0869,0.0996,0.1154,0.1115,0.1397,0.1364,0.1423,0.1421,0.1348,0.1332,0.1557,0.1531,0.1531,0.153,0.153,0,-0.0412,-0.0365,-0.0276,-0.0252,-0.0166,-0.0038,0.0067,0.0176,0.0333,0.0463,0.0598,0.0749,0.0919,0.1099,0.1198,0.1389,0.1444,0.146,0.1486,0.1346,0.1328,0.1452,0.15,0.1539,0.1537,0.1535,0.1534,0,-0.0475,-0.0431,-0.037,-0.0249,-0.0204,-0.0143,0.0031,0.011,0.0268,0.0442,0.0497,0.0777,0.1011,0.1167,0.1413,0.147,0.1665,0.1675,0.1496,0.1496,0.1598,0.1649,0.1911,0.1959,0.1781,0.1781,0.1781,0,-0.049,-0.0487,-0.0403,-0.0369,-0.0314,-0.0209,-0.0129,0.0042,0.0146,0.0484,0.0578,0.086,0.1064,0.1395,0.1478,0.1631,0.1743,0.1652,0.154,0.162,0.17,0.1742,0.1766,0.1466,0.1464,0.1462,0.1461,0,-0.0506,-0.0512,-0.0473,-0.0441,-0.0378,-0.0269,-0.0132,-0.0062,0.0181,0.0344,0.0662,0.0854,0.1154,0.1287,0.1455,0.1536,0.1663,0.1617,0.1759,0.153,0.1537,0.1586,0.1315,0.1444,0.1445,0.1446,0.1447,0.1448,-0.0518,-0.0524,-0.0523,-0.0477,-0.0421,-0.0314,-0.0245,-0.0095,0.0073,0.0312,0.06,0.076,0.1062,0.1257,0.1402,0.1525,0.1581,0.1557,0.1637,0.1695,0.1664,0.1354,0.146,0.1462,0.1463,0.1465,0.1466,0,-0.0512,-0.0541,-0.0534,-0.0499,-0.0472,-0.0402,-0.0239,-0.018,-0.003,0.0128,0.0353,0.0552,0.0821,0.1085,0.1349,0.1509,0.1549,0.1636,0.1666,0.1709,0.148,0.1382,0.1404,0.1404,0.1404,0.1404,0.1404,0.1403,-0.0511,-0.0542,-0.0562,-0.0551,-0.0525,-0.0473,-0.0389,-0.0291,-0.0218,-0.0096,-0.0077,0.0006,0.0493,0.1262,0.1632,0.1668,0.1861,0.1813,0.2022,0.1836,0.1834,0.1833,0.1755,0.1855,0.1855,0.2147,0.215,0.2152]}],[{"header":{"parameterUnit":"m.s-1","parameterCategory":2,"la1":30.2991,"la2":30.254,"lo1":-89.0895,"lo2":-89.0444,"dy":0.0017,"dx":0.0017,"nx":28,"ny":28,"refTime":"2023-08-19T21:00:00:Z","depth":"2","parameterNumber":2,"parameterNumberName":"U-component_of_CURRENTS"},"data":[0,0,0,0,0,0,0,0,0,0,0,0,0,0,0,0,0,0,0,0,0,0,0,0,0,0,0,0,0,0,0,0,0,0,0,0,0,0,0,0,0,0,0,0,0,0,0,0,0,0,0,0,0,0,0,0,0,0,-0.2546,-0.2547,0,-0.2626,-0.2627,-0.2627,-0.2656,-0.2656,-0.2657,-0.2657,-0.2627,-0.2626,-0.2625,0,0,0,0,0,0,0,0,0,0,0,0,0,-0.2436,-0.2437,-0.2545,-0.2547,-0.2548,-0.2626,-0.2627,-0.2628,-0.2656,-0.2656,-0.2657,-0.2657,-0.2627,-0.2626,-0.2625,0,0,0,0,0,0,0,0,0,0,0,0,0,-0.2491,-0.2437,-0.2545,-0.2576,-0.258,-0.2626,-0.2627,-0.2628,-0.2656,-0.2656,-0.2657,-0.2657,-0.2628,-0.2626,-0.2625,-0.2609,0,0,-0.262,-0.262,0,0,0,0,0,0,0,0,-0.2488,-0.2495,-0.257,-0.2574,-0.2579,-0.2636,-0.2578,-0.2618,-0.2656,-0.2621,-0.2657,-0.2657,-0.2623,-0.2622,-0.263,-0.2608,-0.2607,-0.262,-0.2619,-0.2619,-0.2618,0,0,0,0,0,0,0,-0.2484,-0.2492,-0.2572,-0.2572,-0.2577,-0.2594,-0.2601,-0.2586,-0.2613,-0.2624,-0.2628,-0.2646,-0.2624,-0.2632,-0.263,-0.2606,-0.262,-0.2619,-0.2618,-0.2617,-0.2592,-0.2592,0,0,0,0,0,0,-0.2484,-0.2488,-0.2569,-0.2575,-0.254,-0.2595,-0.2604,-0.2613,-0.2616,-0.2619,-0.2645,-0.2647,-0.2634,-0.2631,-0.2629,-0.265,-0.2619,-0.2617,-0.2616,-0.2592,-0.2592,-0.2592,0,0,0,0,0,0,-0.2481,-0.249,-0.2566,-0.2538,-0.255,-0.2597,-0.2608,-0.2615,-0.2635,-0.2634,-0.2634,-0.2661,-0.2634,-0.2631,-0.2645,-0.2647,-0.2617,-0.2615,-0.2591,-0.2592,-0.2592,-0.2666,0,0,0,0,0,0,-0.2478,-0.2488,-0.2493,-0.2538,-0.2551,-0.261,-0.2608,-0.2616,-0.2647,-0.265,-0.2646,-0.2644,-0.2634,-0.2648,-0.2644,-0.2644,-0.2614,-0.2591,-0.2592,-0.2592,-0.2663,-0.2669,-0.2673,0,0,0,0,0,-0.2473,-0.2491,-0.2492,-0.2502,-0.2556,-0.2612,-0.262,-0.2651,-0.2648,-0.2666,-0.2672,-0.2645,-0.2646,-0.2648,-0.2643,-0.2643,-0.2591,-0.2592,-0.2592,-0.2661,-0.2667,-0.2673,0,0,0,0,0,0,-0.2457,-0.2497,-0.2499,-0.253,-0.2572,-0.2619,-0.2639,-0.2656,-0.2674,-0.2677,-0.2661,-0.266,-0.2671,-0.2645,-0.2647,-0.2634,-0.2607,-0.2607,-0.2661,-0.2667,-0.2672,-0.2676,-0.2613,0,0,0,0,0,-0.2452,-0.246,-0.2514,-0.2533,-0.2556,-0.2593,-0.2617,-0.2647,-0.2674,-0.2684,-0.2684,-0.2673,-0.2665,-0.266,-0.2654,-0.2651,-0.2597,-0.2641,-0.2646,-0.2651,-0.2649,-0.258,-0.2579,-0.2594,-0.2594,-0.2594,0,0,-0.2463,-0.2471,-0.2487,-0.2528,-0.2555,-0.2611,-0.2607,-0.266,-0.2691,-0.2674,-0.2705,-0.2699,-0.2671,-0.2679,-0.2678,-0.266,-0.2617,-0.2651,-0.2656,-0.2652,-0.258,-0.2579,-0.2577,-0.2594,-0.2594,-0.2594,0,0,-0.2471,-0.2485,-0.2496,-0.2548,-0.2598,-0.2625,-0.2643,-0.2703,-0.2708,-0.2749,-0.2735,-0.2733,-0.2732,-0.2712,-0.2697,-0.2718,-0.2652,-0.2711,-0.2735,-0.2669,-0.2667,-0.2664,-0.259,-0.258,-0.2706,-0.2707,-0.2707,0,-0.2478,-0.2493,-0.2514,-0.2557,-0.2595,-0.2635,-0.2681,-0.2709,-0.2765,-0.2745,-0.2769,-0.2747,-0.2742,-0.2711,-0.2742,-0.2729,-0.2681,-0.272,-0.2675,-0.2672,-0.2668,-0.2592,-0.258,-0.271,-0.271,-0.2709,-0.2709,0,-0.2495,-0.2539,-0.2558,-0.2608,-0.2656,-0.2706,-0.2761,-0.2783,-0.2793,-0.2803,-0.2787,-0.2791,-0.2761,-0.2768,-0.2778,-0.2741,-0.2713,-0.2697,-0.2663,-0.2671,-0.259,-0.2577,-0.2715,-0.2714,-0.2713,-0.2712,0,0,-0.2434,-0.2541,-0.2548,-0.2577,-0.2686,-0.2711,-0.2767,-0.2782,-0.2765,-0.2818,-0.2782,-0.2805,-0.2789,-0.2772,-0.2761,-0.2736,-0.2693,-0.2726,-0.2721,-0.2656,-0.2539,-0.2455,-0.2431,-0.2675,-0.2673,-0.2672,-0.2491,0,-0.243,-0.2482,-0.2548,-0.2624,-0.2668,-0.2737,-0.2759,-0.279,-0.2799,-0.2785,-0.2771,-0.275,-0.2789,-0.2773,-0.2758,-0.2701,-0.2662,-0.2742,-0.2536,-0.2529,-0.2457,-0.2415,-0.2294,-0.2118,-0.2478,-0.2475,-0.2474,0,-0.2431,-0.2447,-0.2512,-0.2585,-0.2603,-0.2663,-0.2665,-0.2692,-0.2699,-0.2709,-0.2709,-0.2699,-0.2673,-0.2711,-0.2608,-0.2659,-0.2613,-0.2579,-0.257,-0.2455,-0.242,-0.2167,-0.2079,-0.245,-0.2452,-0.2454,-0.2456,0,-0.2339,-0.2431,-0.2449,-0.2499,-0.2593,-0.2606,-0.2626,-0.2654,-0.2627,-0.2653,-0.2633,-0.2618,-0.2561,-0.2539,-0.2485,-0.2542,-0.2358,-0.2401,-0.2272,-0.2265,-0.2101,-0.2081,-0.2319,-0.2319,-0.2319,-0.232,-0.2321,0,-0.2339,-0.2359,-0.2408,-0.2439,-0.2409,-0.2516,-0.2488,-0.2519,-0.2538,-0.2492,-0.2563,-0.2532,-0.2518,-0.2424,-0.243,-0.228,-0.2286,-0.2256,-0.2205,-0.2122,-0.2108,-0.2355,-0.2362,-0.2313,-0.2315,-0.2316,-0.2317,0,-0.2312,-0.2358,-0.2349,-0.2382,-0.2394,-0.2364,-0.2402,-0.2362,-0.2417,-0.2368,-0.2369,-0.2394,-0.232,-0.2269,-0.2183,-0.2135,-0.2055,-0.2001,-0.1904,-0.1847,-0.203,-0.2043,-0.1848,-0.1843,-0.1839,-0.1836,-0.1833,0,-0.2307,-0.2308,-0.2264,-0.2214,-0.2246,-0.2232,-0.2209,-0.229,-0.2257,-0.2289,-0.2233,-0.2186,-0.2127,-0.1955,-0.1909,-0.1809,-0.1924,-0.161,-0.171,-0.2007,-0.1978,-0.1997,-0.2015,-0.1514,-0.1509,-0.1505,-0.1502,0,-0.2242,-0.2209,-0.2154,-0.2084,-0.205,-0.1989,-0.1978,-0.1929,-0.1996,-0.1959,-0.194,-0.1916,-0.1861,-0.1718,-0.1576,-0.1541,-0.163,-0.1522,-0.1792,-0.1672,-0.1683,-0.1659,-0.1688,-0.1464,-0.1468,-0.1471,-0.1473,-0.1474,-0.2098,-0.2024,-0.1954,-0.1846,-0.1815,-0.1706,-0.1585,-0.1585,-0.1489,-0.1398,-0.156,-0.1483,-0.1538,-0.1288,-0.1264,-0.1281,-0.1398,-0.1339,-0.1355,-0.1375,-0.1388,-0.1394,-0.1122,-0.1124,-0.1125,-0.1127,-0.1128,0,-0.1857,-0.1811,-0.1727,-0.1543,-0.1431,-0.1562,-0.1384,-0.1233,-0.1041,-0.1107,-0.1061,-0.0933,-0.0868,-0.1021,-0.0995,-0.0982,-0.1028,-0.0965,-0.1031,-0.1066,-0.1097,-0.1102,-0.0756,-0.0756,-0.0755,-0.0754,0,0,-0.1724,-0.1552,-0.1494,-0.1203,-0.1162,-0.0996,-0.088,-0.0698,-0.0636,-0.0488,-0.0512,-0.0606,-0.0827,-0.0683,-0.0727,-0.0752,-0.0893,-0.0725,-0.101,-0.1111,-0.1141,-0.1288,-0.1329,0,0,0,0,0]},{"header":{"parameterUnit":"m.s-1","parameterCategory":2,"la1":30.2991,"la2":30.254,"lo1":-89.0895,"lo2":-89.0444,"dy":0.0017,"dx":0.0017,"nx":28,"ny":28,"refTime":"2023-08-19T21:00:00:Z","depth":"2","parameterNumber":3,"parameterNumberName":"V-component_of_CURRENTS"},"data":[0,0,0,0,0,0,0,0,0,0,0,0,0,0,0,0,0,0,0,0,0,0,0,0,0,0,0,0,0,0,0,0,0,0,0,0,0,0,0,0,0,0,0,0,0,0,0,0,0,0,0,0,0,0,0,0,0,0,-0.0171,-0.017,0,-0.0046,-0.0044,-0.0042,0.0041,0.0041,0.0041,0.0041,0.0204,0.0208,0.0212,0,0,0,0,0,0,0,0,0,0,0,0,0,-0.0171,-0.0172,-0.0171,-0.017,-0.0169,-0.0046,-0.0044,-0.0042,0.0041,0.0041,0.0041,0.0041,0.0202,0.0207,0.0212,0,0,0,0,0,0,0,0,0,0,0,0,0,-0.0116,-0.0172,-0.0172,-0.0118,-0.0112,-0.0047,-0.0044,-0.0041,0.0041,0.0041,0.0041,0.0041,0.0201,0.0207,0.0213,0.0252,0,0,0.0233,0.0236,0,0,0,0,0,0,0,0,-0.0119,-0.0115,-0.0127,-0.0121,-0.0115,-0.0023,0.0016,0.0057,0.0041,-0.0011,0.0041,0.0041,0.0128,0.014,0.0171,0.026,0.0267,0.0233,0.0237,0.024,0.0242,0,0,0,0,0,0,0,-0.0123,-0.0119,-0.0116,-0.0126,-0.0118,-0.0042,-0.0035,0.0025,0.0061,-0.0007,-0.0002,0.0003,0.0132,0.0164,0.0175,0.0269,0.0233,0.0239,0.0243,0.0246,0.0481,0.0483,0,0,0,0,0,0,-0.0159,-0.0124,-0.012,-0.0113,-0.0123,-0.0043,-0.0035,-0.0048,0.006,0.0075,0.0003,0.0006,0.0153,0.0168,0.0181,0.0292,0.024,0.0246,0.025,0.0478,0.0481,0.0484,0,0,0,0,0,0,-0.016,-0.0161,-0.0125,-0.0118,-0.0109,-0.0045,-0.0059,-0.0046,-0.0012,0.0066,0.0083,0.0022,0.0154,0.0172,0.0271,0.0296,0.0249,0.0255,0.0475,0.0479,0.0482,0.0475,0,0,0,0,0,0,-0.0161,-0.0162,-0.0177,-0.0122,-0.0111,-0.0082,-0.0059,-0.0043,-0.0011,-0.0005,0.0088,0.0103,0.0156,0.0262,0.0278,0.0304,0.026,0.0472,0.0477,0.0481,0.0472,0.0478,0.0483,0,0,0,0,0,-0.0161,-0.0187,-0.0179,-0.0178,-0.0137,-0.0082,-0.0067,-0.0017,-0.0011,0.0013,0.0094,0.0101,0.03,0.0269,0.0287,0.0316,0.047,0.0476,0.0481,0.047,0.0477,0.0483,0,0,0,0,0,0,-0.0186,-0.0179,-0.017,-0.019,-0.0139,-0.007,-0.0056,-0.0021,0.0059,0.0065,0.0138,0.0161,0.0251,0.0292,0.0255,0.04,0.0383,0.0393,0.0369,0.0376,0.0381,0.0369,0.0265,0,0,0,0,0,-0.0205,-0.0229,-0.0184,-0.0198,-0.0182,-0.012,-0.0093,-0.0053,0.0017,0.0051,0.0126,0.0208,0.0288,0.0337,0.0409,0.0492,0.0515,0.0523,0.0528,0.0532,0.0537,0.0584,0.0592,0.0501,0.0501,0.0501,0,0,-0.0213,-0.0219,-0.0227,-0.0205,-0.017,-0.012,-0.0102,-0.0064,-0.0012,0.0057,0.0152,0.0223,0.0313,0.0412,0.0455,0.0451,0.0577,0.0539,0.0541,0.0545,0.059,0.0598,0.0606,0.0505,0.0504,0.0504,0,0,-0.0246,-0.0254,-0.0277,-0.0227,-0.0185,-0.0134,-0.0126,-0.0046,-0.0006,0.0096,0.0157,0.0252,0.0375,0.0455,0.0506,0.0584,0.0594,0.0601,0.0627,0.0672,0.0678,0.0685,0.074,0.0751,0.0611,0.0611,0.0611,0,-0.0256,-0.0284,-0.0264,-0.0246,-0.0208,-0.0142,-0.0111,-0.0048,0.0066,0.0098,0.0126,0.0326,0.0399,0.052,0.0563,0.0593,0.062,0.0589,0.0674,0.0681,0.0687,0.0742,0.0755,0.0612,0.0612,0.0612,0.0611,0,-0.0287,-0.0285,-0.0288,-0.0249,-0.0192,-0.0161,-0.0069,-0.0007,0.0049,0.0116,0.0234,0.0359,0.0471,0.0519,0.0576,0.0669,0.0674,0.0662,0.0645,0.0695,0.0751,0.0764,0.0612,0.0612,0.0612,0.0612,0,0,-0.0372,-0.0329,-0.0327,-0.0315,-0.0196,-0.0168,-0.0067,0.0016,0.0039,0.0188,0.0245,0.0428,0.0477,0.0542,0.0621,0.0693,0.0779,0.0706,0.0708,0.0739,0.0887,0.0687,0.0682,0.0771,0.0773,0.0774,0.0912,0,-0.0406,-0.0414,-0.0354,-0.0308,-0.0293,-0.0176,-0.0116,-0.0016,0.0078,0.0158,0.0303,0.039,0.0487,0.0535,0.0632,0.0728,0.0811,0.0744,0.0855,0.0859,0.0654,0.0688,0.066,0.076,0.0924,0.0926,0.0928,0,-0.0447,-0.0457,-0.0441,-0.0392,-0.0379,-0.0313,-0.0222,-0.0154,-0.0006,0.0065,0.0221,0.0313,0.0487,0.053,0.0753,0.0702,0.0804,0.0886,0.0892,0.0711,0.0679,0.0738,0.0777,0.0949,0.0948,0.0946,0.0945,0,-0.0545,-0.051,-0.0523,-0.0485,-0.0406,-0.037,-0.0315,-0.0181,-0.0134,0.0022,0.0072,0.0272,0.0358,0.0536,0.071,0.0738,0.0907,0.0954,0.0888,0.0877,0.0876,0.0857,0.1101,0.1101,0.1101,0.11,0.11,0,-0.0591,-0.0596,-0.0576,-0.057,-0.0587,-0.0482,-0.0453,-0.0367,-0.0235,-0.0217,0.0007,0.0037,0.0356,0.0484,0.0676,0.0786,0.0878,0.0894,0.0889,0.0872,0.0852,0.103,0.102,0.1105,0.1104,0.1103,0.1102,0,-0.0636,-0.0633,-0.0661,-0.0637,-0.062,-0.0624,-0.0517,-0.0522,-0.0379,-0.0329,-0.0284,-0.0102,0.0045,0.0333,0.0586,0.0681,0.0838,0.0854,0.0804,0.0786,0.0815,0.0804,0.0843,0.0837,0.0832,0.0827,0.0823,0,-0.0648,-0.0675,-0.0716,-0.0755,-0.0727,-0.0706,-0.0717,-0.0584,-0.058,-0.0473,-0.0501,-0.0327,-0.0253,0.0048,0.032,0.0621,0.0697,0.0649,0.0684,0.0793,0.0786,0.0783,0.0779,0.0737,0.0733,0.0729,0.0727,0,-0.0672,-0.0709,-0.0759,-0.0825,-0.0859,-0.0917,-0.0913,-0.0906,-0.0821,-0.0766,-0.0776,-0.0702,-0.0413,-0.0151,0.0183,0.0342,0.0603,0.0576,0.0737,0.0731,0.0682,0.0677,0.068,0.0697,0.07,0.0702,0.0704,0.0705,-0.0716,-0.0772,-0.0845,-0.0914,-0.0985,-0.1112,-0.111,-0.1137,-0.1129,-0.1014,-0.1024,-0.0872,-0.0614,-0.0137,0.0113,0.0381,0.0401,0.0464,0.0482,0.0501,0.0389,0.0323,0.0256,0.0256,0.0257,0.0257,0.0257,0,-0.0766,-0.0827,-0.0911,-0.1039,-0.1123,-0.1131,-0.1233,-0.1196,-0.1188,-0.1146,-0.1057,-0.0818,-0.0571,-0.023,0.0161,0.0312,0.0444,0.0325,0.0495,0.0517,0.0538,0.0438,0.0314,0.0316,0.0317,0.0318,0,0,-0.0803,-0.0902,-0.0958,-0.1107,-0.1167,-0.1232,-0.1263,-0.1233,-0.1169,-0.1061,-0.0954,-0.0853,-0.057,-0.0296,-0.0039,0.0173,0.032,0.0194,0.0114,0.0304,0.0326,0.0557,0.0412,0,0,0,0,0]}],[{"header":{"parameterUnit":"m.s-1","parameterCategory":2,"la1":30.2991,"la2":30.254,"lo1":-89.0895,"lo2":-89.0444,"dy":0.0017,"dx":0.0017,"nx":28,"ny":28,"refTime":"2023-08-19T21:00:00:Z","depth":"4","parameterNumber":2,"parameterNumberName":"U-component_of_CURRENTS"},"data":[0,0,0,0,0,0,0,0,0,0,0,0,0,0,0,0,0,0,0,0,0,0,0,0,0,0,0,0,0,0,0,0,0,0,0,0,0,0,0,0,0,0,0,0,0,0,0,0,0,0,0,0,0,0,0,0,0,0,-0.1054,-0.1055,0,-0.1129,-0.113,-0.1131,-0.1248,-0.125,-0.1252,-0.1254,-0.1294,-0.1293,-0.1292,0,0,0,0,0,0,0,0,0,0,0,0,0,-0.0854,-0.0858,-0.1054,-0.1055,-0.1056,-0.1129,-0.113,-0.1131,-0.1248,-0.125,-0.1253,-0.1255,-0.1294,-0.1293,-0.1292,0,0,0,0,0,0,0,0,0,0,0,0,0,-0.0936,-0.0859,-0.1054,-0.1123,-0.113,-0.1129,-0.113,-0.1131,-0.1247,-0.125,-0.1253,-0.1256,-0.1294,-0.1293,-0.1292,-0.1219,0,0,-0.1287,-0.1287,0,0,0,0,0,0,0,0,-0.0931,-0.0943,-0.1112,-0.1119,-0.1127,-0.1183,-0.1074,-0.1159,-0.1246,-0.1202,-0.1254,-0.1258,-0.1251,-0.1254,-0.1261,-0.1221,-0.1222,-0.1287,-0.1286,-0.1286,-0.1285,0,0,0,0,0,0,0,-0.0926,-0.094,-0.1084,-0.1113,-0.1122,-0.1096,-0.1113,-0.109,-0.1207,-0.1206,-0.1215,-0.1223,-0.1255,-0.1262,-0.1262,-0.1223,-0.1287,-0.1286,-0.1285,-0.1285,-0.1261,-0.1261,0,0,0,0,0,0,-0.0923,-0.0935,-0.1081,-0.1086,-0.1035,-0.1098,-0.1117,-0.1161,-0.1208,-0.1219,-0.122,-0.1228,-0.1262,-0.1264,-0.1264,-0.1291,-0.1286,-0.1284,-0.1284,-0.1261,-0.1261,-0.1261,0,0,0,0,0,0,-0.0919,-0.0936,-0.1078,-0.101,-0.1026,-0.1099,-0.1147,-0.1161,-0.1224,-0.1219,-0.123,-0.1276,-0.1265,-0.1266,-0.1288,-0.129,-0.1284,-0.1283,-0.126,-0.1261,-0.1261,-0.1274,0,0,0,0,0,0,-0.0913,-0.0935,-0.097,-0.1011,-0.103,-0.1083,-0.1145,-0.116,-0.122,-0.1233,-0.1268,-0.1273,-0.1268,-0.129,-0.1287,-0.1288,-0.1281,-0.126,-0.126,-0.1261,-0.1273,-0.1275,-0.1276,0,0,0,0,0,-0.0906,-0.0936,-0.0972,-0.0989,-0.1077,-0.1082,-0.1089,-0.1149,-0.122,-0.1224,-0.1275,-0.1275,-0.1291,-0.1289,-0.1285,-0.1285,-0.126,-0.126,-0.1261,-0.1273,-0.1274,-0.1276,0,0,0,0,0,0,-0.0865,-0.0952,-0.0992,-0.105,-0.1068,-0.1103,-0.1121,-0.1171,-0.1216,-0.1221,-0.1273,-0.1278,-0.1279,-0.1288,-0.1287,-0.1281,-0.1275,-0.1275,-0.1286,-0.1287,-0.1289,-0.1338,-0.128,0,0,0,0,0,-0.087,-0.0921,-0.0975,-0.1013,-0.1034,-0.1089,-0.1109,-0.1119,-0.1159,-0.1187,-0.1294,-0.1321,-0.1264,-0.1289,-0.1261,-0.1273,-0.1284,-0.1273,-0.1274,-0.1275,-0.1313,-0.1344,-0.1352,-0.1263,-0.1263,-0.1263,0,0,-0.0847,-0.0914,-0.0933,-0.1006,-0.1039,-0.103,-0.1111,-0.1107,-0.1109,-0.1172,-0.1303,-0.1317,-0.1259,-0.1257,-0.1263,-0.1283,-0.1293,-0.1276,-0.1277,-0.1315,-0.1345,-0.1354,-0.1362,-0.1263,-0.1263,-0.1263,0,0,-0.0805,-0.0907,-0.0919,-0.0935,-0.0963,-0.0985,-0.0999,-0.1095,-0.1156,-0.1182,-0.1241,-0.1309,-0.1292,-0.1319,-0.1278,-0.1279,-0.1272,-0.1256,-0.1337,-0.1364,-0.1373,-0.1381,-0.1352,-0.1358,-0.1292,-0.1292,-0.1292,0,-0.0764,-0.0825,-0.0909,-0.0912,-0.0925,-0.0979,-0.0955,-0.0984,-0.1099,-0.1154,-0.1204,-0.129,-0.1302,-0.1277,-0.1311,-0.1284,-0.1283,-0.1328,-0.1368,-0.1377,-0.1384,-0.1354,-0.136,-0.1292,-0.1292,-0.1292,-0.1292,0,-0.073,-0.0763,-0.077,-0.0814,-0.0825,-0.0802,-0.0844,-0.0929,-0.1018,-0.1067,-0.1142,-0.1217,-0.1286,-0.1295,-0.1295,-0.137,-0.1339,-0.1336,-0.1368,-0.1394,-0.1359,-0.1365,-0.1293,-0.1293,-0.1293,-0.1293,0,0,-0.0666,-0.0731,-0.074,-0.0747,-0.0769,-0.0774,-0.0784,-0.0823,-0.0865,-0.0994,-0.1094,-0.1118,-0.1261,-0.124,-0.1319,-0.1416,-0.1481,-0.1442,-0.1443,-0.142,-0.1508,-0.1337,-0.1326,-0.149,-0.1492,-0.1494,-0.1442,0,-0.0612,-0.0612,-0.0663,-0.0637,-0.0628,-0.0687,-0.0706,-0.0731,-0.0801,-0.0937,-0.1015,-0.1091,-0.1186,-0.1262,-0.1368,-0.1441,-0.1507,-0.1494,-0.1483,-0.1482,-0.1333,-0.1332,-0.1502,-0.1446,-0.1448,-0.1449,-0.1449,0,-0.0546,-0.0578,-0.0548,-0.0579,-0.0591,-0.0584,-0.0659,-0.0669,-0.0767,-0.0831,-0.0948,-0.1037,-0.1203,-0.1285,-0.1433,-0.1418,-0.1487,-0.155,-0.1547,-0.1404,-0.1324,-0.1427,-0.146,-0.1459,-0.1458,-0.1457,-0.1457,0,-0.0454,-0.0487,-0.0484,-0.0487,-0.0525,-0.0553,-0.0589,-0.0651,-0.0699,-0.081,-0.0874,-0.1013,-0.1121,-0.1236,-0.138,-0.1417,-0.151,-0.1537,-0.143,-0.1415,-0.1581,-0.1575,-0.1641,-0.1641,-0.1641,-0.1641,-0.1641,0,-0.0359,-0.0356,-0.0457,-0.0442,-0.0465,-0.0504,-0.0534,-0.0586,-0.0685,-0.0728,-0.0859,-0.0933,-0.1134,-0.1214,-0.1334,-0.1364,-0.1439,-0.1445,-0.1403,-0.1576,-0.157,-0.1581,-0.1575,-0.1639,-0.164,-0.164,-0.164,0,-0.0228,-0.0278,-0.0279,-0.0368,-0.0396,-0.0415,-0.0512,-0.0546,-0.0629,-0.0705,-0.0754,-0.089,-0.0946,-0.1074,-0.1224,-0.1267,-0.1328,-0.132,-0.1442,-0.1406,-0.1229,-0.1224,-0.1196,-0.119,-0.1184,-0.118,-0.1176,0,-0.0177,-0.0153,-0.0233,-0.0257,-0.0305,-0.0361,-0.0392,-0.0496,-0.0541,-0.0661,-0.0697,-0.0779,-0.0855,-0.0876,-0.1024,-0.1107,-0.1152,-0.1162,-0.1289,-0.1228,-0.1191,-0.1194,-0.1196,-0.1168,-0.1167,-0.1165,-0.1164,0,-0.0095,-0.0114,-0.0142,-0.0179,-0.0227,-0.0273,-0.0342,-0.0374,-0.0484,-0.058,-0.0608,-0.0669,-0.0696,-0.0774,-0.0809,-0.0908,-0.1148,-0.1109,-0.1124,-0.1244,-0.1194,-0.1163,-0.1171,-0.1146,-0.1148,-0.115,-0.1151,0,-0.0071,-0.0071,-0.0101,-0.0132,-0.0166,-0.0187,-0.0232,-0.0296,-0.035,-0.0498,-0.0481,-0.0562,-0.0636,-0.0667,-0.0716,-0.0752,-0.0814,-0.0877,-0.0906,-0.0927,-0.0878,-0.0777,-0.0566,0,0,0,0,0,-0.0065,-0.0047,-0.0066,-0.0088,-0.0107,-0.0125,-0.0204,-0.0263,-0.037,-0.0356,-0.0427,-0.0439,-0.0498,-0.054,-0.0538,-0.0652,-0.0834,-0.0655,-0.0925,-0.1045,-0.1066,-0.1041,0,0,0,0,0,0,-0.0057,-0.0059,-0.0051,-0.0041,-0.0038,-0.0064,-0.0102,-0.018,-0.0182,-0.0285,-0.0294,-0.0397,-0.0437,-0.0455,-0.0509,-0.0534,-0.0701,-0.0713,-0.0713,-0.1033,-0.1052,-0.1069,-0.105,0,0,0,0,0]},{"header":{"parameterUnit":"m.s-1","parameterCategory":2,"la1":30.2991,"la2":30.254,"lo1":-89.0895,"lo2":-89.0444,"dy":0.0017,"dx":0.0017,"nx":28,"ny":28,"refTime":"2023-08-19T21:00:00:Z","depth":"4","parameterNumber":3,"parameterNumberName":"V-component_of_CURRENTS"},"data":[0,0,0,0,0,0,0,0,0,0,0,0,0,0,0,0,0,0,0,0,0,0,0,0,0,0,0,0,0,0,0,0,0,0,0,0,0,0,0,0,0,0,0,0,0,0,0,0,0,0,0,0,0,0,0,0,0,0,-0.0343,-0.0343,0,-0.038,-0.0381,-0.0382,-0.0358,-0.0357,-0.0356,-0.0355,-0.0555,-0.0561,-0.0567,0,0,0,0,0,0,0,0,0,0,0,0,0,-0.0382,-0.0381,-0.0343,-0.0343,-0.0344,-0.038,-0.0381,-0.0382,-0.0359,-0.0357,-0.0356,-0.0354,-0.0552,-0.056,-0.0568,0,0,0,0,0,0,0,0,0,0,0,0,0,-0.0389,-0.038,-0.0343,-0.0335,-0.0334,-0.038,-0.0381,-0.0382,-0.0359,-0.0357,-0.0355,-0.0353,-0.055,-0.0559,-0.0569,-0.0669,0,0,-0.0599,-0.0603,0,0,0,0,0,0,0,0,-0.0388,-0.0387,-0.0336,-0.0335,-0.0335,-0.0361,-0.0468,-0.0485,-0.036,-0.0352,-0.0355,-0.0352,-0.0505,-0.0518,-0.053,-0.0678,-0.0687,-0.06,-0.0606,-0.061,-0.0613,0,0,0,0,0,0,0,-0.0388,-0.0387,-0.036,-0.0336,-0.0336,-0.0374,-0.0372,-0.0471,-0.0444,-0.0353,-0.035,-0.0352,-0.0506,-0.0521,-0.0536,-0.069,-0.06,-0.0608,-0.0614,-0.0618,-0.085,-0.085,0,0,0,0,0,0,-0.0373,-0.0385,-0.0359,-0.0361,-0.0355,-0.0374,-0.0372,-0.0356,-0.0439,-0.0448,-0.0353,-0.035,-0.0505,-0.0524,-0.0543,-0.0661,-0.061,-0.0619,-0.0625,-0.0849,-0.085,-0.085,0,0,0,0,0,0,-0.0374,-0.037,-0.0357,-0.0374,-0.0374,-0.0374,-0.0358,-0.0358,-0.0381,-0.0437,-0.0449,-0.0375,-0.0504,-0.0529,-0.0691,-0.0669,-0.0624,-0.0633,-0.0849,-0.0849,-0.085,-0.0903,0,0,0,0,0,0,-0.0375,-0.037,-0.0376,-0.0372,-0.0372,-0.0401,-0.036,-0.036,-0.0382,-0.0379,-0.0462,-0.0476,-0.0505,-0.0676,-0.07,-0.0682,-0.064,-0.0849,-0.0849,-0.085,-0.0901,-0.0905,-0.0909,0,0,0,0,0,-0.0376,-0.0397,-0.0375,-0.0374,-0.0372,-0.0403,-0.0409,-0.0404,-0.0386,-0.0414,-0.05,-0.0474,-0.069,-0.069,-0.0717,-0.0699,-0.0848,-0.0849,-0.085,-0.0899,-0.0904,-0.0909,0,0,0,0,0,0,-0.043,-0.0396,-0.0373,-0.0384,-0.0395,-0.0398,-0.043,-0.042,-0.0503,-0.0516,-0.0559,-0.0585,-0.0678,-0.0707,-0.0703,-0.0756,-0.0733,-0.0739,-0.076,-0.0766,-0.077,-0.0766,-0.0648,0,0,0,0,0,-0.0439,-0.0437,-0.042,-0.0434,-0.044,-0.0437,-0.0454,-0.045,-0.0508,-0.0537,-0.0589,-0.0643,-0.0699,-0.0756,-0.0804,-0.0912,-0.0885,-0.0887,-0.0891,-0.0895,-0.0905,-0.0884,-0.0887,-0.0852,-0.0852,-0.0852,0,0,-0.0464,-0.0448,-0.0447,-0.0446,-0.0452,-0.0475,-0.0444,-0.048,-0.05,-0.0558,-0.0636,-0.0678,-0.073,-0.081,-0.0848,-0.0844,-0.0885,-0.0896,-0.0899,-0.0908,-0.0885,-0.0889,-0.0892,-0.0852,-0.0852,-0.0852,0,0,-0.0512,-0.0499,-0.0508,-0.0528,-0.0539,-0.0533,-0.0544,-0.0558,-0.0566,-0.0667,-0.0671,-0.0739,-0.0842,-0.0862,-0.0888,-0.0957,-0.0898,-0.0926,-0.0973,-0.0952,-0.0955,-0.0957,-0.0905,-0.0903,-0.0939,-0.094,-0.094,0,-0.0544,-0.0541,-0.0527,-0.0555,-0.0569,-0.0556,-0.0582,-0.0604,-0.0669,-0.0682,-0.0697,-0.0797,-0.0853,-0.0919,-0.0938,-0.0964,-0.0935,-0.0958,-0.0958,-0.096,-0.0962,-0.0908,-0.0904,-0.0942,-0.0942,-0.0942,-0.0941,0,-0.0587,-0.0606,-0.0629,-0.0632,-0.0652,-0.0689,-0.069,-0.072,-0.0724,-0.0723,-0.0784,-0.0873,-0.0918,-0.092,-0.0981,-0.0996,-0.0964,-0.0957,-0.0949,-0.0969,-0.091,-0.0905,-0.0946,-0.0945,-0.0944,-0.0944,0,0,-0.0595,-0.0641,-0.0654,-0.0669,-0.0696,-0.0715,-0.0751,-0.0758,-0.0767,-0.0819,-0.0838,-0.0935,-0.094,-0.0971,-0.1007,-0.1024,-0.1023,-0.1017,-0.1015,-0.0971,-0.0954,-0.0889,-0.0877,-0.1019,-0.1019,-0.1019,-0.09,0,-0.0626,-0.0684,-0.0695,-0.0755,-0.0774,-0.0786,-0.0807,-0.0821,-0.0831,-0.0858,-0.0894,-0.0941,-0.0964,-0.1008,-0.1022,-0.1022,-0.1017,-0.1054,-0.0937,-0.0933,-0.0879,-0.0873,-0.1019,-0.0896,-0.0895,-0.0894,-0.0894,0,-0.0651,-0.0679,-0.074,-0.0781,-0.0791,-0.083,-0.0843,-0.0865,-0.0882,-0.0895,-0.0929,-0.0951,-0.0999,-0.1019,-0.0996,-0.1018,-0.0998,-0.0989,-0.0983,-0.0906,-0.0862,-0.0877,-0.0885,-0.0885,-0.0886,-0.0887,-0.0887,0,-0.0631,-0.071,-0.0753,-0.0782,-0.0826,-0.0855,-0.0867,-0.0876,-0.0885,-0.0926,-0.0943,-0.0963,-0.0991,-0.0971,-0.0955,-0.0981,-0.0903,-0.0917,-0.0825,-0.0817,-0.0889,-0.0888,-0.0893,-0.0893,-0.0893,-0.0893,-0.0894,0,-0.0631,-0.0672,-0.0764,-0.0792,-0.0829,-0.0861,-0.0885,-0.09,-0.0927,-0.0931,-0.0966,-0.0977,-0.0988,-0.095,-0.0931,-0.084,-0.0859,-0.0826,-0.0789,-0.0909,-0.0912,-0.0883,-0.0884,-0.0889,-0.089,-0.0891,-0.0892,0,-0.0589,-0.0653,-0.0715,-0.0797,-0.0823,-0.085,-0.0896,-0.0907,-0.0935,-0.0954,-0.0977,-0.0979,-0.0928,-0.0896,-0.0846,-0.0792,-0.0729,-0.0694,-0.0792,-0.0762,-0.0662,-0.0667,-0.0577,-0.0574,-0.0571,-0.0569,-0.0567,0,-0.0577,-0.0609,-0.0721,-0.0752,-0.0797,-0.0844,-0.0859,-0.0903,-0.0918,-0.0939,-0.0946,-0.0926,-0.0915,-0.0756,-0.0734,-0.0635,-0.0642,-0.0577,-0.067,-0.0659,-0.0632,-0.0641,-0.0649,-0.0563,-0.0562,-0.0561,-0.0561,0,-0.0547,-0.0603,-0.0644,-0.0711,-0.0763,-0.0805,-0.0848,-0.086,-0.0899,-0.0935,-0.0903,-0.0863,-0.0789,-0.0718,-0.0634,-0.0578,-0.0605,-0.055,-0.0556,-0.0644,-0.0641,-0.0619,-0.063,-0.0552,-0.0553,-0.0554,-0.0554,0,-0.0534,-0.0551,-0.062,-0.0666,-0.0719,-0.076,-0.079,-0.0815,-0.0835,-0.088,-0.0851,-0.0812,-0.0798,-0.0684,-0.0605,-0.0539,-0.055,-0.0527,-0.0536,-0.0545,-0.0589,-0.0584,-0.0438,0,0,0,0,0,-0.0523,-0.0523,-0.0566,-0.0619,-0.0668,-0.071,-0.0774,-0.0807,-0.0854,-0.0823,-0.0846,-0.0784,-0.0682,-0.0638,-0.0563,-0.0571,-0.054,-0.0477,-0.0519,-0.0501,-0.0511,-0.0564,0,0,0,0,0,0,-0.0501,-0.0532,-0.0546,-0.0575,-0.0601,-0.0659,-0.0705,-0.0748,-0.0738,-0.0776,-0.0724,-0.0729,-0.0635,-0.0719,-0.0546,-0.053,-0.0537,-0.0447,-0.0444,-0.0495,-0.0504,-0.0513,-0.0571,0,0,0,0,0]}]]